Powrót do katalogu

CZ-6A DEB

AktywnySSO
NORAD 54486·DEBRIS·🇨🇳 China

Wystrzelony Nov 11, 2022 z Taiyuan Satellite Launch Center

Loading…

Następne Przeloty (najbliższe 24 godziny)

TLE

ŚwieżeSource: Space-Track

Epoka: Sep 13, 2026, 13:45 UTC

1 54486U 22151HN  26256.57330161  .00004339  00000-0  15616-2 0  9995
2 54486  98.7998 277.8343 0075291  74.1215 286.8250 14.32668270198375

Śledź CZ-6A DEB w czasie rzeczywistym z AllMySat

Download on the App Store